Regional Weather Roundup
Issued by NWS

Home | Current Version | Previous Version | Graphics & Text | Print | Product List | Glossary On
Versions: 1 2 3 4 5 6 7 8 9 10 11 12 13 14 15 16 17 18 19 20 21 22 23 24 25 26 27 28 29 30 31 32 33 34 35 36 37 38 39 40 41 42 43 44 45 46 47 48 49 50
000
ASUS43 KMKX 020259
RWRWI

WISCONSIN REGIONAL WEATHER ROUNDUP
NATIONAL WEATHER SERVICE MILWAUKEE/SULLIVAN WI
1000 PM CDT WED APR 01 2015

NOTE: "FAIR" INDICATES FEW OR NO CLOUDS BELOW 12,000 FEET WITH NO
SIGNIFICANT WEATHER AND/OR OBSTRUCTIONS TO VISIBILITY.

WIZ001-002-006>008-014>016-023>028-020400-
NORTHWEST WISCONSIN

CITY           SKY/WX    TMP DP  RH WIND       PRES   REMARKS
SUPERIOR ARPT  MOCLDY    34  33  96 N3        29.49R
ASHLAND        CLOUDY    61  46  57 S23G32    29.45F
HAYWARD        RAIN      58  49  72 SW9       29.59R
SIREN          LGT RAIN  58  53  84 S16G22    29.50F
CUMBERLAND     TSTM      55  48  76 W9        29.60R
RICE LAKE      TSTM      61  46  58 W8        29.60R
CHETEK         DRIZZLE   63  38  39 W6        29.57R
LADYSMITH      CLOUDY    64  34  32 CALM      29.58R THUNDER
EAU CLAIRE     CLOUDY    71  34  25 S25G40    29.51F
MENOMONIE      CLOUDY    71  33  24 S18G28    29.51S
NEW RICHMOND   RAIN      58  53  82 SW6       29.59R
OSCEOLA        RAIN      59  56  89 SE12      29.56F
$$

WIZ003>005-009-010-017-018-020400-
NORTH CENTRAL WISCONSIN

CITY           SKY/WX    TMP DP  RH WIND       PRES   REMARKS
MANITOWISH WTR LGT RAIN  49  38  68 NW7       29.64R
ARBOR VITAE    CLOUDY    55  38  53 S3        29.59R
WOODRUFF       CLOUDY    55  38  53 S3        29.59R
RHINELANDER    CLOUDY    54  37  52 S8        29.60F
EAGLE RIVER    CLOUDY    50  35  56 S5        29.59F
LAND O LAKES   CLOUDY    49  35  59 CALM      29.62R
PHILLIPS       CLOUDY    65  35  33 W3        29.59R
TOMAHAWK       CLOUDY    52  38  58 CALM      29.60S
MEDFORD        MOCLDY    60  37  42 S12       29.59S
MERRILL        MOCLDY    52  39  60 NE3       29.61R
$$

WIZ029-030-035-036-043>047-020400-
CENTRAL WISCONSIN

CITY           SKY/WX    TMP DP  RH WIND       PRES   REMARKS
WAUSAU         PTCLDY    66  33  29 S18G26    29.59S
MOSINEE        CLEAR     64  34  32 S21G29    29.61F
MARSHFIELD     CLEAR     65  33  30 SW15G24   29.61R
STEVENS POINT  CLEAR     62  34  35 S12       29.63F
WAUPACA        CLEAR     66  33  29 S12G22    29.65F
WAUTOMA        NOT AVBL
WISC RAPIDS    CLEAR     67  30  25 S16G24    29.63S
CAMP DOUGLAS   NOT AVBL
$$

WIZ011>013-019>022-031-037>040-048>050-020400-
NORTHEAST WISCONSIN

CITY           SKY/WX    TMP DP  RH WIND       PRES   REMARKS
ANTIGO         MOCLDY    47  39  73 SE10      29.63S
SHAWANO        MOCLDY    58  39  48 S8        29.64F
OCONTO         CLOUDY    53  38  57 S6        29.66F
STURGEON BAY   CLOUDY    48  36  61 S16       29.72S
GREEN BAY      MOCLDY    56  40  55 S16       29.68S
MANITOWOC      NOT AVBL
APPLETON       PTCLDY    63  36  36 S25G33    29.68F
CLINTONVILLE   PTCLDY    61  36  39 S20G26    29.64F
OSHKOSH        CLEAR     62  39  42 S23G33    29.68F
$$

WIZ032>034-041-042-053>061-020400-
SOUTHWEST WISCONSIN

CITY           SKY/WX    TMP DP  RH WIND       PRES   REMARKS
LA CROSSE      CLEAR     69  35  28 S20G28    29.59R
SPARTA         CLEAR     69  31  24 S17G28    29.62S
VIROQUA        CLEAR     64  34  33 S15G24    29.66R
BOSCOBEL       CLEAR     68  34  28 S14G28    29.66F
PRAIRIE DU CHI CLEAR     67  32  27 SE12      29.65F
PLATTEVILLE    CLEAR     63  36  36 SE22G28   29.71F
$$

WIZ056-057-062-063-064-067-068-020400-
SOUTH CENTRAL WISCONSIN

CITY           SKY/WX    TMP DP  RH WIND       PRES   REMARKS
REEDSBURG      CLEAR     66  37  34 S16G24    29.67F
BARABOO/DELLS  CLEAR     65  32  29 S17G25    29.69S
LONE ROCK      NOT AVBL
MINERAL POINT  CLEAR     63  32  31 S16       29.72F
MADISON        CLEAR     65  36  34 S21G31    29.72F
MIDDLETON      CLEAR     64  32  29 S22G30    29.72F
WATERTOWN      CLEAR     62  40  44 S15G21    29.75F
MONROE         CLEAR     61  37  41 S24       29.76F
JANESVILLE     CLEAR     64  34  32 S22G29    29.78F
$$

WIZ051-052-058>065-066-070>072-020400-
SOUTHEAST WISCONSIN

CITY           SKY/WX    TMP DP  RH WIND       PRES   REMARKS
MILWAUKEE      PTCLDY    62  37  39 S16       29.79F
WAUKESHA       CLEAR     61  36  39 S17G25    29.79
MILWAUKEE/TIMM PTCLDY    61  34  36 S13G20    29.79F
RACINE         PTCLDY    59  37  44 S12       29.82F
BURLINGTON     CLEAR     61  37  41 S16G25    29.80F
KENOSHA        CLEAR     63  39  41 S21G29    29.81F
FOND DU LAC    CLEAR     64  38  38 S25G32    29.70F
SHEBOYGAN      PTCLDY    51  37  58 S17       29.73F
WEST BEND      CLEAR     63  34  34 S18G28    29.75F
JUNEAU         CLEAR     63  38  39 S18G30    29.75F
$$

LSZ147-162-020400-
LAKE SUPERIOR

STATION/POSITION TIME  TEMP    WIND        PRES    WAVE
                       AIR SEA DIR/SP/G            HT/PER
                 (UTC) (F)     (DEG/KT/KT) (MB)    (FT/S)
DEVILS ISLAND    0200   37     290/  5/  6  997.9R
PORT WING        0200   34      20/  8/ 18  997.6
SAXON HARBOR     0204   62     190/ 16/ 28  998.3
$$

LMZ867-665-643>646-020400-
LAKE MICHIGAN

STATION/POSITION TIME  TEMP    WIND        PRES    WAVE
                       AIR SEA DIR/SP/G            HT/PER
                 (UTC) (F)     (DEG/KT/KT) (MB)    (FT/S)
NORTHPORT PIER   0201   37     140/ 10/ 12 1007.1F
SISTER BAY       0117   45     160/ 16/ 23   N/A
KEWAUNEE LAKESHO 0200   44     190/ 21/ 24 1006.4F
SHEBOYGAN LAKESH 0200   45     180/ 25/ 27 1008.4F
PORT WASHINGTON  0200   42     190/  4/  8 1009.5F
MILWAUKEE LAKESH 0200   45     150/ 13/ 15   N/A
KENOSHA   LAKESH 0200          180/ 14/ 20 1010.5S
$$

TC  - TEMPERATURE IN CELSIUS
VSB - VISIBILITY IN STATUTE MILES
WCI - WIND CHILL INDEX
HX  - HEAT INDEX



USA.gov is the U.S. government's official web portal to all federal, state and local government web resources and services.